N517RG MMGL-MMZH

Flight info

Callsign N517RG
Flight time 0h 59m
Altitude 27000
Route GDL1B GDL UJ27 IKLUB IKLUB2D
Aircraft PC12/L-SDFGRWY/S

Departure

Time 2026-04-25 16:18
Airport Guadalajara International Airport (MMGL)

Arrival

Time 2026-04-25 17:17
Airport Ixtapa-Zihuatanejo International Airport (MMZH)
Time Latitude Longitude Altitude Speed Heading
2026-04-25 16:06 20.51796 -103.31574 5025 ft 0 kts 117°
2026-04-25 16:14 20.51795 -103.31572 5025 ft 3 kts 117°
2026-04-25 16:14 20.51787 -103.31527 5025 ft 9 kts 38°
2026-04-25 16:14 20.51844 -103.31493 5025 ft 10 kts 30°
2026-04-25 16:15 20.51913 -103.31450 5026 ft 12 kts 29°
2026-04-25 16:15 20.51979 -103.31410 5026 ft 12 kts 28°
2026-04-25 16:15 20.52052 -103.31368 5026 ft 12 kts 30°
2026-04-25 16:15 20.52063 -103.31297 5026 ft 11 kts 115°
2026-04-25 16:16 20.52030 -103.31219 5026 ft 12 kts 113°
2026-04-25 16:16 20.51991 -103.31124 5026 ft 16 kts 115°
2026-04-25 16:16 20.51945 -103.31017 5026 ft 16 kts 112°
2026-04-25 16:16 20.51902 -103.30911 5026 ft 15 kts 114°
2026-04-25 16:17 20.51863 -103.30817 5026 ft 12 kts 115°
2026-04-25 16:17 20.51888 -103.30747 5025 ft 12 kts 22°
2026-04-25 16:17 20.51966 -103.30710 5025 ft 12 kts 24°
2026-04-25 16:17 20.52028 -103.30747 5026 ft 13 kts 294°
2026-04-25 16:18 20.52093 -103.30900 5027 ft 43 kts 295°
2026-04-25 16:18 20.52145 -103.31023 5028 ft 63 kts 294°
2026-04-25 16:18 20.52590 -103.32108 5275 ft 117 kts 295°
2026-04-25 16:18 20.52976 -103.32959 5630 ft 138 kts 298°
2026-04-25 16:19 20.53428 -103.33976 5878 ft 165 kts 295°
2026-04-25 16:19 20.53907 -103.35138 6236 ft 172 kts 294°
2026-04-25 16:19 20.54391 -103.36294 6704 ft 170 kts 294°
2026-04-25 16:20 20.55391 -103.38623 7622 ft 175 kts 295°
2026-04-25 16:20 20.55623 -103.39874 8049 ft 177 kts 259°
2026-04-25 16:20 20.53669 -103.41012 9006 ft 187 kts 162°
2026-04-25 16:21 20.52699 -103.40100 9474 ft 191 kts 122°
2026-04-25 16:21 20.52063 -103.38840 9909 ft 194 kts 117°
2026-04-25 16:21 20.51454 -103.37549 10346 ft 195 kts 117°
2026-04-25 16:21 20.50843 -103.36250 10751 ft 197 kts 117°
2026-04-25 16:22 20.50234 -103.34954 11176 ft 199 kts 117°
2026-04-25 16:22 20.49610 -103.33634 11606 ft 200 kts 117°
2026-04-25 16:22 20.48977 -103.32307 12036 ft 201 kts 117°
2026-04-25 16:22 20.48339 -103.30981 12465 ft 202 kts 117°
2026-04-25 16:23 20.47693 -103.29648 12883 ft 202 kts 117°
2026-04-25 16:23 20.46717 -103.28603 13249 ft 203 kts 150°
2026-04-25 16:23 20.45463 -103.27901 13646 ft 204 kts 153°
2026-04-25 16:23 20.44218 -103.27162 14055 ft 205 kts 149°
2026-04-25 16:24 20.42995 -103.26369 14396 ft 206 kts 148°
2026-04-25 16:24 20.41768 -103.25566 14727 ft 208 kts 149°
2026-04-25 16:24 20.40558 -103.24782 15204 ft 200 kts 149°
2026-04-25 16:24 20.39365 -103.24012 15579 ft 201 kts 149°
2026-04-25 16:25 20.38161 -103.23235 15924 ft 203 kts 149°
2026-04-25 16:25 20.37750 -103.22969 16041 ft 204 kts 149°
2026-04-25 16:25 20.35726 -103.21661 16631 ft 206 kts 149°
2026-04-25 16:25 20.34496 -103.20867 16984 ft 207 kts 149°
2026-04-25 16:26 20.33259 -103.20068 17341 ft 208 kts 149°
2026-04-25 16:26 20.32014 -103.19265 17687 ft 210 kts 149°
2026-04-25 16:26 20.30760 -103.18455 18014 ft 212 kts 149°
2026-04-25 16:26 20.29496 -103.17640 18326 ft 213 kts 149°
2026-04-25 16:27 20.28225 -103.16820 18601 ft 214 kts 149°
2026-04-25 16:27 20.26949 -103.15997 18871 ft 215 kts 149°
2026-04-25 16:27 20.25665 -103.15168 19150 ft 216 kts 149°
2026-04-25 16:27 20.24375 -103.14336 19422 ft 217 kts 149°
2026-04-25 16:28 20.23080 -103.13501 19688 ft 218 kts 149°
2026-04-25 16:28 20.21775 -103.12660 19956 ft 220 kts 149°
2026-04-25 16:28 20.20463 -103.11815 20229 ft 221 kts 150°
2026-04-25 16:28 20.19141 -103.10963 20493 ft 223 kts 150°
2026-04-25 16:29 20.17811 -103.10106 20763 ft 224 kts 150°
2026-04-25 16:29 20.16475 -103.09245 21036 ft 225 kts 150°
2026-04-25 16:29 20.15130 -103.08379 21315 ft 227 kts 150°
2026-04-25 16:29 20.13777 -103.07508 21583 ft 228 kts 150°
2026-04-25 16:30 20.12434 -103.06644 21853 ft 229 kts 150°
2026-04-25 16:30 20.11064 -103.05762 22130 ft 231 kts 150°
2026-04-25 16:30 20.09686 -103.04875 22414 ft 232 kts 150°
2026-04-25 16:30 20.08299 -103.03983 22684 ft 234 kts 150°
2026-04-25 16:31 20.06905 -103.03087 22967 ft 235 kts 151°
2026-04-25 16:31 20.05503 -103.02185 23245 ft 236 kts 151°
2026-04-25 16:31 20.04090 -103.01276 23505 ft 238 kts 151°
2026-04-25 16:31 20.02670 -103.00364 23742 ft 239 kts 151°
2026-04-25 16:32 20.01244 -102.99447 23970 ft 240 kts 151°
2026-04-25 16:32 19.99796 -102.98517 24208 ft 241 kts 151°
2026-04-25 16:32 19.98359 -102.97594 24438 ft 242 kts 151°
2026-04-25 16:32 19.96915 -102.96666 24657 ft 243 kts 151°
2026-04-25 16:33 19.95435 -102.95717 24679 ft 254 kts 151°
2026-04-25 16:33 19.93914 -102.94743 24682 ft 263 kts 151°
2026-04-25 16:33 19.92327 -102.93724 24685 ft 270 kts 151°
2026-04-25 16:33 19.90703 -102.92682 24690 ft 275 kts 151°
2026-04-25 16:34 19.89051 -102.91622 24718 ft 278 kts 151°
2026-04-25 16:34 19.87402 -102.90564 24835 ft 276 kts 151°
2026-04-25 16:34 19.85754 -102.89507 24881 ft 278 kts 151°
2026-04-25 16:34 19.84090 -102.88441 24881 ft 281 kts 151°
2026-04-25 16:35 19.82413 -102.87366 24882 ft 282 kts 151°
2026-04-25 16:35 19.80730 -102.86288 24887 ft 283 kts 151°
2026-04-25 16:35 19.79041 -102.85206 24886 ft 284 kts 151°
2026-04-25 16:35 19.77346 -102.84121 24886 ft 285 kts 151°
2026-04-25 16:36 19.75648 -102.83033 24885 ft 285 kts 151°
2026-04-25 16:36 19.75075 -102.82667 24887 ft 285 kts 151°
2026-04-25 16:36 19.72244 -102.80855 24888 ft 286 kts 151°
2026-04-25 16:36 19.70542 -102.79766 24888 ft 286 kts 151°
2026-04-25 16:37 19.68832 -102.78672 24877 ft 286 kts 151°
2026-04-25 16:37 19.67135 -102.77587 24891 ft 285 kts 151°
2026-04-25 16:37 19.65435 -102.76500 24890 ft 286 kts 151°
2026-04-25 16:37 19.63731 -102.75411 24876 ft 286 kts 151°
2026-04-25 16:38 19.62036 -102.74328 24886 ft 284 kts 151°
2026-04-25 16:38 19.60343 -102.73247 24886 ft 284 kts 151°
2026-04-25 16:38 19.58650 -102.72165 24889 ft 284 kts 151°
2026-04-25 16:38 19.56953 -102.71082 24889 ft 285 kts 151°
2026-04-25 16:39 19.55830 -102.70365 24892 ft 285 kts 151°
2026-04-25 16:39 19.53552 -102.68912 24891 ft 286 kts 151°
2026-04-25 16:39 19.51843 -102.67821 24889 ft 287 kts 151°
2026-04-25 16:39 19.50130 -102.66729 24888 ft 287 kts 151°
2026-04-25 16:40 19.48418 -102.65637 24886 ft 287 kts 151°
2026-04-25 16:40 19.46707 -102.64546 24885 ft 287 kts 151°
2026-04-25 16:40 19.44997 -102.63456 24888 ft 287 kts 151°
2026-04-25 16:40 19.43289 -102.62368 24891 ft 287 kts 151°
2026-04-25 16:41 19.41581 -102.61280 24887 ft 286 kts 151°
2026-04-25 16:41 19.41029 -102.60928 24887 ft 286 kts 151°
2026-04-25 16:41 19.36470 -102.58025 24885 ft 286 kts 151°
2026-04-25 16:42 19.34765 -102.56940 24886 ft 286 kts 151°
2026-04-25 16:42 19.33060 -102.55855 24887 ft 286 kts 151°
2026-04-25 16:42 19.31354 -102.54770 24887 ft 286 kts 151°
2026-04-25 16:42 19.30224 -102.54051 24885 ft 286 kts 151°
2026-04-25 16:43 19.28520 -102.52968 24883 ft 286 kts 151°
2026-04-25 16:43 19.26815 -102.51884 24883 ft 286 kts 151°
2026-04-25 16:43 19.25110 -102.50800 24884 ft 286 kts 151°
2026-04-25 16:43 19.23407 -102.49718 24884 ft 286 kts 151°
2026-04-25 16:44 19.21707 -102.48638 24883 ft 286 kts 151°
2026-04-25 16:44 19.20004 -102.47557 24883 ft 285 kts 151°
2026-04-25 16:44 19.18304 -102.46477 24882 ft 285 kts 151°
2026-04-25 16:44 19.16604 -102.45398 24882 ft 285 kts 151°
2026-04-25 16:45 19.14903 -102.44319 24882 ft 285 kts 151°
2026-04-25 16:45 19.13200 -102.43238 24884 ft 286 kts 151°
2026-04-25 16:45 19.11496 -102.42158 24882 ft 285 kts 151°
2026-04-25 16:45 19.09792 -102.41077 24882 ft 286 kts 151°
2026-04-25 16:46 19.08089 -102.39998 24880 ft 286 kts 151°
2026-04-25 16:46 19.06385 -102.38917 24880 ft 286 kts 151°
2026-04-25 16:46 19.04681 -102.37837 24879 ft 286 kts 151°
2026-04-25 16:46 19.03552 -102.37122 24881 ft 285 kts 151°
2026-04-25 16:47 19.01276 -102.35681 24876 ft 285 kts 151°
2026-04-25 16:47 18.99573 -102.34602 24877 ft 285 kts 151°
2026-04-25 16:47 18.97870 -102.33524 24875 ft 285 kts 151°
2026-04-25 16:47 18.96167 -102.32446 24879 ft 286 kts 151°
2026-04-25 16:48 18.94463 -102.31368 24877 ft 285 kts 151°
2026-04-25 16:48 18.92784 -102.30250 24877 ft 285 kts 147°
2026-04-25 16:48 18.91136 -102.29096 24874 ft 285 kts 149°
2026-04-25 16:48 18.89441 -102.28018 24874 ft 284 kts 152°
2026-04-25 16:49 18.87727 -102.26977 24876 ft 284 kts 152°
2026-04-25 16:49 18.86026 -102.25916 24877 ft 284 kts 151°
2026-04-25 16:49 18.84355 -102.24854 24873 ft 284 kts 150°
2026-04-25 16:49 18.82662 -102.23783 24881 ft 284 kts 151°
2026-04-25 16:50 18.80964 -102.22717 24880 ft 284 kts 151°
2026-04-25 16:50 18.79267 -102.21652 24878 ft 284 kts 151°
2026-04-25 16:50 18.77571 -102.20585 24882 ft 284 kts 151°
2026-04-25 16:50 18.75874 -102.19517 24882 ft 284 kts 151°
2026-04-25 16:51 18.74176 -102.18450 24878 ft 284 kts 151°
2026-04-25 16:51 18.72482 -102.17385 24883 ft 284 kts 151°
2026-04-25 16:51 18.70783 -102.16318 24888 ft 284 kts 151°
2026-04-25 16:51 18.69634 -102.15595 24889 ft 284 kts 151°
2026-04-25 16:52 18.67382 -102.14181 24886 ft 285 kts 151°
2026-04-25 16:52 18.65683 -102.13114 24895 ft 284 kts 151°
2026-04-25 16:52 18.63986 -102.12049 24899 ft 284 kts 151°
2026-04-25 16:52 18.62288 -102.10984 24900 ft 284 kts 151°
2026-04-25 16:53 18.58891 -102.08853 24899 ft 284 kts 150°
2026-04-25 16:53 18.57193 -102.07787 24898 ft 284 kts 151°
2026-04-25 16:53 18.55495 -102.06723 24899 ft 284 kts 150°
2026-04-25 16:54 18.53759 -102.05636 24510 ft 296 kts 150°
2026-04-25 16:54 18.51962 -102.04512 24116 ft 304 kts 150°
2026-04-25 16:54 18.50096 -102.03342 23722 ft 310 kts 150°
2026-04-25 16:54 18.48228 -102.02171 23290 ft 314 kts 150°
2026-04-25 16:55 18.46347 -102.00992 22835 ft 316 kts 150°
2026-04-25 16:55 18.44504 -101.99840 22386 ft 307 kts 150°
2026-04-25 16:55 18.42700 -101.98712 21931 ft 297 kts 150°
2026-04-25 16:55 18.40938 -101.97609 21489 ft 294 kts 150°
2026-04-25 16:56 18.39178 -101.96507 21051 ft 294 kts 149°
2026-04-25 16:56 18.37418 -101.95406 20624 ft 294 kts 149°
2026-04-25 16:56 18.35666 -101.94311 20279 ft 291 kts 149°
2026-04-25 16:56 18.33921 -101.93219 19949 ft 294 kts 149°
2026-04-25 16:57 18.32127 -101.92141 19625 ft 299 kts 155°
2026-04-25 16:57 18.30823 -101.91582 19414 ft 301 kts 159°
2026-04-25 16:57 18.28204 -101.90562 18994 ft 305 kts 160°
2026-04-25 16:57 18.26211 -101.89779 18687 ft 306 kts 159°
2026-04-25 16:58 18.24223 -101.88977 18370 ft 306 kts 159°
2026-04-25 16:58 18.22234 -101.88176 18022 ft 306 kts 159°
2026-04-25 16:58 18.20243 -101.87381 17634 ft 306 kts 159°
2026-04-25 16:58 18.18251 -101.86589 17254 ft 306 kts 159°
2026-04-25 16:59 18.16262 -101.85794 16884 ft 306 kts 159°
2026-04-25 16:59 18.14282 -101.85002 16521 ft 305 kts 160°
2026-04-25 16:59 18.12299 -101.84211 16150 ft 303 kts 160°
2026-04-25 16:59 18.10328 -101.83425 15799 ft 303 kts 160°
2026-04-25 17:00 18.08363 -101.82641 15435 ft 301 kts 160°
2026-04-25 17:00 18.06412 -101.81863 15087 ft 299 kts 160°
2026-04-25 17:00 18.04482 -101.81094 14733 ft 293 kts 160°
2026-04-25 17:00 18.02592 -101.80340 14392 ft 288 kts 160°
2026-04-25 17:01 18.00732 -101.79599 14060 ft 285 kts 161°
2026-04-25 17:01 17.98957 -101.78892 13737 ft 282 kts 161°
2026-04-25 17:03 17.98904 -101.78870 13727 ft 282 kts 161°
2026-04-25 17:04 17.97092 -101.78148 13346 ft 280 kts 161°
2026-04-25 17:04 17.95254 -101.77416 12961 ft 278 kts 161°
2026-04-25 17:04 17.93474 -101.76706 12598 ft 276 kts 161°
2026-04-25 17:04 17.91679 -101.75992 12222 ft 275 kts 161°
2026-04-25 17:05 17.89890 -101.75280 11869 ft 275 kts 160°
2026-04-25 17:05 17.86925 -101.72887 11152 ft 276 kts 121°
2026-04-25 17:05 17.86237 -101.71014 10800 ft 275 kts 105°
2026-04-25 17:06 17.85769 -101.69066 10458 ft 275 kts 103°
2026-04-25 17:06 17.85310 -101.67117 10111 ft 275 kts 104°
2026-04-25 17:06 17.84836 -101.65173 9767 ft 275 kts 104°
2026-04-25 17:06 17.84357 -101.63233 9394 ft 274 kts 104°
2026-04-25 17:07 17.83884 -101.61301 9021 ft 273 kts 104°
2026-04-25 17:07 17.83415 -101.59371 8657 ft 272 kts 104°
2026-04-25 17:07 17.82947 -101.57452 8292 ft 271 kts 104°
2026-04-25 17:07 17.82479 -101.55541 7935 ft 270 kts 104°
2026-04-25 17:08 17.82016 -101.53648 7579 ft 266 kts 104°
2026-04-25 17:08 17.81559 -101.51781 7225 ft 262 kts 104°
2026-04-25 17:08 17.81109 -101.49941 6987 ft 256 kts 104°
2026-04-25 17:08 17.80677 -101.48175 6988 ft 245 kts 104°
2026-04-25 17:09 17.80257 -101.46461 6985 ft 240 kts 104°
2026-04-25 17:09 17.79594 -101.44882 6873 ft 240 kts 125°
2026-04-25 17:09 17.78556 -101.43490 6642 ft 244 kts 128°
2026-04-25 17:09 17.77488 -101.42089 6416 ft 247 kts 128°
2026-04-25 17:10 17.76425 -101.40670 6185 ft 247 kts 128°
2026-04-25 17:10 17.75367 -101.39255 5839 ft 246 kts 128°
2026-04-25 17:10 17.74313 -101.37858 5473 ft 241 kts 128°
2026-04-25 17:10 17.73298 -101.36514 5116 ft 236 kts 128°
2026-04-25 17:11 17.72302 -101.35186 4887 ft 228 kts 128°
2026-04-25 17:11 17.71305 -101.33898 4510 ft 218 kts 133°
2026-04-25 17:11 17.70066 -101.33062 4134 ft 207 kts 160°
2026-04-25 17:11 17.68694 -101.32855 3762 ft 194 kts 180°
2026-04-25 17:12 17.67396 -101.32891 3431 ft 189 kts 181°
2026-04-25 17:12 17.66063 -101.32928 3125 ft 190 kts 182°
2026-04-25 17:12 17.64776 -101.32962 2806 ft 180 kts 182°
2026-04-25 17:12 17.63548 -101.32993 2486 ft 173 kts 182°
2026-04-25 17:13 17.62322 -101.33022 2208 ft 179 kts 182°
2026-04-25 17:13 17.61905 -101.33036 2201 ft 176 kts 184°
2026-04-25 17:13 17.60239 -101.33984 2158 ft 165 kts 234°
2026-04-25 17:13 17.59877 -101.35076 1957 ft 157 kts 264°
2026-04-25 17:14 17.59896 -101.36197 1763 ft 152 kts 270°
2026-04-25 17:14 17.59928 -101.37302 1565 ft 151 kts 270°
2026-04-25 17:14 17.59959 -101.38402 1365 ft 149 kts 271°
2026-04-25 17:14 17.59987 -101.39450 1175 ft 139 kts 270°
2026-04-25 17:15 17.60013 -101.40426 985 ft 129 kts 270°
2026-04-25 17:15 17.60037 -101.41299 801 ft 106 kts 270°
2026-04-25 17:15 17.60056 -101.42018 651 ft 95 kts 270°
2026-04-25 17:15 17.60053 -101.42181 632 ft 94 kts 270°
2026-04-25 17:16 17.60056 -101.42738 521 ft 93 kts 269°
2026-04-25 17:16 17.60087 -101.43406 391 ft 91 kts 270°
2026-04-25 17:16 17.60106 -101.44064 249 ft 89 kts 269°
2026-04-25 17:17 17.60128 -101.44707 111 ft 87 kts 267°
2026-04-25 17:17 17.60141 -101.45322 36 ft 77 kts 269°
2026-04-25 17:17 17.60153 -101.45805 26 ft 56 kts 272°
2026-04-25 17:17 17.60162 -101.46031 25 ft 5 kts 277°
2026-04-25 17:18 17.60195 -101.46048 25 ft 8 kts 342°
2026-04-25 17:18 17.60238 -101.46095 25 ft 10 kts 306°
2026-04-25 17:18 17.60280 -101.46158 24 ft 11 kts 303°
2026-04-25 17:18 17.60323 -101.46229 24 ft 12 kts 301°
2026-04-25 17:19 17.60376 -101.46291 23 ft 12 kts
2026-04-25 17:19 17.60464 -101.46282 25 ft 13 kts
2026-04-25 17:19 17.60504 -101.46239 25 ft 6 kts 61°
2026-04-25 17:19 17.60544 -101.46251 24 ft 6 kts 264°
2026-04-25 17:20 17.60543 -101.46256 24 ft 0 kts 266°